Eastsound, WA

9:12 AM PDT on June 27, 2017 (GMT -0700)
Orcas Island

Weather History for KORS - May, 2013

Change the Weather History Date:

Sunday, May 12, 2013

  Actual Average (KFHR) Record (KFHR)
Temperature  
Mean Temperature 58 °F -  
Max Temperature 62 °F 58 °F 75 °F (1997)
Min Temperature 53 °F 40 °F 35 °F (2008)
Degree Days  
Heating Degree Days 8    
Growing Degree Days 8 (Base 50)    
Moisture  
Dew Point 56 °F    
Average Humidity 96    
Maximum Humidity 100    
Minimum Humidity 82    
Precipitation  
Precipitation 0.08 in - - ()
Sea Level Pressure  
Sea Level Pressure 30.02 in    
Wind  
Wind Speed 3 mph (South)    
Max Wind Speed 10 mph    
Max Gust Speed -    
Visibility 7 miles    
Events Rain    
Averages and records for this station are not official NWS values.
T = Trace of Precipitation, MM = Missing Value Source: NWS Daily Summary

Daily Weather History Graph

Daily Weather History Graph

Search for Another Location

Airport or City:

Trip Planner

Search our weather history database for the weather conditions in past years. The results will help you decide how hot, cold, wet, or windy it might be!

Date:

Astronomy

May. 12, 2013 Rise Set
Actual Time 5:33 AM PDT 8:42 PM PDT
Civil Twilight 4:56 AM PDT 9:20 PM PDT
Nautical Twilight 4:08 AM PDT 10:09 PM PDT
Astronomical Twilight 3:07 AM PDT 11:11 PM PDT
Moon 7:30 AM PDT (5/12) 11:15 PM PDT (5/12)
Length of Visible Light 16h 23m
Length of Day
15h 08m
Waxing Crescent, 7% of the Moon is Illuminated
May 12
Waxing Crescent
May 17
First Quarter
May 24
Full
May 31
Last Quarter
Jun 8
New

Hourly Weather History & Observations

Time (PDT) Temp. Dew Point Humidity Pressure Visibility Wind Dir Wind Speed Gust Speed Precip Events Conditions
12:15 AM 53.6 °F 53.6 °F 100% 30.01 in 9.0 mi North - - N/A   Scattered Clouds
12:35 AM 53.6 °F 53.6 °F 100% 30.01 in 9.0 mi Calm Calm - N/A   Mostly Cloudy
12:55 AM 55.4 °F 53.6 °F 94% 30.01 in 8.0 mi Calm Calm - N/A Rain Light Rain
1:15 AM 55.4 °F 53.6 °F 94% 30.01 in 6.0 mi Calm Calm - N/A Rain Light Rain
1:55 AM 55.4 °F 55.4 °F 100% 30.03 in 10.0 mi Calm Calm - N/A   Overcast
2:15 AM 55.4 °F 53.6 °F 94% 30.01 in 3.0 mi Calm Calm - N/A Rain Rain
2:35 AM 55.4 °F 53.6 °F 94% 30.01 in 6.0 mi Calm Calm - N/A Rain Light Rain
2:55 AM 53.6 °F 53.6 °F 100% 30.01 in 4.0 mi North - - N/A Rain Light Rain
3:15 AM 55.4 °F 55.4 °F 100% 30.01 in 3.0 mi North - - N/A Rain Light Rain
3:35 AM 55.4 °F 55.4 °F 100% 30.01 in 2.5 mi Calm Calm - N/A Rain Rain
3:55 AM 55.4 °F 55.4 °F 100% 30.01 in 3.0 mi North - - N/A Rain Rain
4:15 AM 53.6 °F 53.6 °F 100% 30.02 in 3.0 mi Calm Calm - 0.02 in Rain Rain
4:35 AM 53.6 °F 53.6 °F 100% 30.00 in 3.0 mi Calm Calm - 0.04 in Rain Light Rain
4:55 AM 53.6 °F 53.6 °F 100% 30.00 in 5.0 mi SE 4.6 mph - 0.04 in   Mostly Cloudy
5:15 AM 55.4 °F 55.4 °F 100% 29.99 in 5.0 mi South 9.2 mph - N/A Rain Light Rain
5:35 AM 55.4 °F 55.4 °F 100% 29.99 in 5.0 mi Calm Calm - N/A Rain Light Rain
5:55 AM 55.4 °F 55.4 °F 100% 30.01 in 8.0 mi SSW 5.8 mph - N/A   Clear
6:15 AM 55.4 °F 55.4 °F 100% 30.02 in 9.0 mi South 4.6 mph - N/A   Mostly Cloudy
6:35 AM 55.4 °F 55.4 °F 100% 30.01 in 7.0 mi South 4.6 mph - N/A   Overcast
6:55 AM 55.4 °F 55.4 °F 100% 30.02 in 7.0 mi South 9.2 mph - N/A   Overcast
7:15 AM 55.4 °F 55.4 °F 100% 30.03 in 7.0 mi South 8.1 mph - N/A Rain Light Rain
7:35 AM 55.4 °F 55.4 °F 100% 30.03 in 7.0 mi South 8.1 mph - N/A   Overcast
7:55 AM 55.4 °F 55.4 °F 100% 30.03 in 8.0 mi South 6.9 mph - N/A   Overcast
8:15 AM 55.4 °F 55.4 °F 100% 30.04 in 8.0 mi South 5.8 mph - N/A   Overcast
8:35 AM 57.2 °F 55.4 °F 94% 30.04 in 8.0 mi South 3.5 mph - N/A   Overcast
8:55 AM 57.2 °F 55.4 °F 94% 30.04 in 8.0 mi South 4.6 mph - N/A   Overcast
9:15 AM 57.2 °F 57.2 °F 100% 30.04 in 8.0 mi Calm Calm - N/A   Overcast
9:35 AM 57.2 °F 57.2 °F 100% 30.04 in 8.0 mi South 5.8 mph - N/A Rain Light Rain
9:55 AM 57.2 °F 57.2 °F 100% 30.04 in 9.0 mi South 4.6 mph - N/A   Overcast
10:15 AM 57.2 °F 57.2 °F 100% 30.04 in 8.0 mi South 3.5 mph - N/A   Overcast
10:35 AM 59.0 °F 57.2 °F 94% 30.04 in 8.0 mi South 9.2 mph - N/A   Mostly Cloudy
10:55 AM 59.0 °F 57.2 °F 94% 30.04 in 9.0 mi South 6.9 mph - N/A   Overcast
11:15 AM 59.0 °F 57.2 °F 94% 30.04 in 6.0 mi SSW 9.2 mph - N/A Rain Light Rain
11:35 AM 59.0 °F 57.2 °F 94% 30.05 in 8.0 mi South 6.9 mph - N/A   Overcast
11:55 AM 59.0 °F 57.2 °F 94% 30.05 in 5.0 mi South 3.5 mph - N/A   Overcast
12:15 PM 59.0 °F 57.2 °F 94% 30.06 in 3.0 mi South 5.8 mph - N/A   Overcast
12:55 PM 59.0 °F 57.2 °F 94% 30.05 in 9.0 mi South 8.1 mph - N/A   Overcast
1:15 PM 59.0 °F 57.2 °F 94% 30.05 in 8.0 mi South 6.9 mph - N/A   Overcast
1:35 PM 60.8 °F 57.2 °F 88% 30.05 in 9.0 mi South 6.9 mph - N/A   Overcast
1:55 PM 62.6 °F 57.2 °F 82% 30.05 in 10.0 mi South 10.4 mph - N/A   Mostly Cloudy
2:15 PM 62.6 °F 57.2 °F 82% 30.05 in 9.0 mi South 6.9 mph - N/A   Scattered Clouds
2:35 PM 62.6 °F 57.2 °F 82% 30.05 in 9.0 mi South 9.2 mph - N/A   Clear
2:55 PM 62.6 °F 57.2 °F 82% 30.04 in 10.0 mi South 8.1 mph - N/A   Clear
3:35 PM 60.8 °F 57.2 °F 88% 30.04 in 10.0 mi South 10.4 mph - N/A   Clear
3:55 PM 62.6 °F 57.2 °F 82% 30.04 in 9.0 mi South 6.9 mph - N/A   Partly Cloudy
4:15 PM 62.6 °F 57.2 °F 82% 30.03 in 9.0 mi South 9.2 mph - N/A   Partly Cloudy
4:35 PM 60.8 °F 57.2 °F 88% 30.02 in 4.0 mi SSW 9.2 mph - N/A Rain Light Rain
4:55 PM 60.8 °F 57.2 °F 88% 30.02 in 9.0 mi SSW 8.1 mph - N/A Rain Light Rain
5:15 PM 60.8 °F 57.2 °F 88% 30.01 in 7.0 mi SSW 6.9 mph - N/A Rain Light Rain
5:35 PM 59.0 °F 57.2 °F 94% 30.02 in 1.2 mi North - - 0.03 in Rain Heavy Rain
5:55 PM 59.0 °F 59.0 °F 100% 30.01 in 5.0 mi Calm Calm - 0.04 in Rain Light Rain
6:15 PM 59.0 °F 59.0 °F 100% 30.00 in 9.0 mi South 4.6 mph - N/A   Clear
6:35 PM 59.0 °F 59.0 °F 100% 29.99 in 7.0 mi Calm Calm - N/A Rain Light Rain
7:15 PM 59.0 °F 59.0 °F 100% 29.99 in 3.0 mi Calm Calm - N/A Rain Light Rain
7:35 PM 59.0 °F 59.0 °F 100% 29.99 in 5.0 mi Calm Calm - N/A   Scattered Clouds
7:55 PM 59.0 °F 59.0 °F 100% 29.98 in 6.0 mi Calm Calm - N/A   Mostly Cloudy
8:15 PM 57.2 °F 57.2 °F 100% 29.99 in 5.0 mi Calm Calm - N/A   Overcast
8:35 PM 57.2 °F 57.2 °F 100% 29.98 in 8.0 mi Calm Calm - N/A   Overcast
8:55 PM 57.2 °F 57.2 °F 100% 29.98 in 10.0 mi Calm Calm - N/A   Overcast
9:15 PM 59.0 °F 57.2 °F 94% 29.98 in 9.0 mi Calm Calm - N/A   Overcast
9:35 PM 57.2 °F 57.2 °F 100% 29.98 in 10.0 mi Calm Calm - N/A   Overcast
9:55 PM 57.2 °F 57.2 °F 100% 29.99 in 10.0 mi Calm Calm - N/A   Overcast
10:15 PM 57.2 °F 57.2 °F 100% 29.99 in 10.0 mi Calm Calm - N/A   Mostly Cloudy
10:35 PM 57.2 °F 57.2 °F 100% 29.99 in 10.0 mi Calm Calm - N/A   Mostly Cloudy
10:55 PM 57.2 °F 57.2 °F 100% 29.99 in 10.0 mi Calm Calm - N/A   Mostly Cloudy
11:15 PM 57.2 °F 55.4 °F 94% 29.99 in 10.0 mi South 3.5 mph - N/A   Overcast
11:35 PM 55.4 °F 55.4 °F 100% 29.99 in 10.0 mi SSW 9.2 mph - N/A   Overcast
11:55 PM 55.4 °F 55.4 °F 100% 30.00 in 10.0 mi South 8.1 mph - N/A   Overcast